,,Stat6,,Stat2,,Stat8,,Stat9,,Stat10,,Wind1,,Wind1,
time,status,PA1M_AVG,status,PR1M_SUM,status,RH1M_AVG,status,SR1M_AVG,status,TA1M_AVG,status,W1dAve1m,status,W1sAve1m,
2006-10-12, 07:00:01,VALID,921.86,VALID,0,VALID,99.7828,VALID,-0.0339617,VALID,19.9279,VALID,287,VALID,0.0217634,
2006-10-12, 07:01:00,VALID,921.848,VALID,0,VALID,99.4484,VALID,-0.0339617,VALID,19.9249,VALID,287,VALID,0,
2006-10-12, 07:02:00,VALID,921.84,VALID,0,VALID,99.0148,VALID,-0.0339617,VALID,19.8832,VALID,287,VALID,0.0351563,
2006-10-12, 07:03:00,VALID,921.816,VALID,0,VALID,99.0656,VALID,0,VALID,19.8701,VALID,287,VALID,0.0746528,
2006-10-12, 07:04:00,VALID,921.808,VALID,0,VALID,99.2208,VALID,-0.0169808,VALID,19.8961,VALID,287,VALID,0.175327,
2006-10-12, 07:05:00,VALID,921.776,VALID,0,VALID,99.3861,VALID,-0.0169808,VALID,19.9118,VALID,287,VALID,0.154018,
2006-10-12, 07:06:00,VALID,921.762,VALID,0,VALID,99.4382,VALID,0,VALID,19.9281,VALID,287,VALID,0.0691964,
2006-10-12, 07:07:00,VALID,921.753,VALID,0,VALID,99.4433,VALID,-0.0169808,VALID,19.9152,VALID,287,VALID,0.268643,
2006-10-12, 07:08:00,VALID,921.733,VALID,0,VALID,99.5234,VALID,0,VALID,19.9214,VALID,285,VALID,0.0960582,
2006-10-12, 07:09:00,VALID,921.714,VALID,0,VALID,99.5005,VALID,0,VALID,19.9346,VALID,285,VALID,0.036044,
2006-10-12, 07:10:00,VALID,921.706,VALID,0,VALID,99.3556,VALID,-0.0339617,VALID,19.9311,VALID,285,VALID,0,
2006-10-12, 07:11:00,VALID,921.688,VALID,0,VALID,98.6765,VALID,-0.0169808,VALID,19.8639,VALID,285,VALID,0,
2006-10-12, 07:12:00,VALID,921.661,VALID,0,VALID,98.2556,VALID,-0.0339617,VALID,19.8058,VALID,285,VALID,0.0134943,
2006-10-12, 07:13:00,VALID,921.644,VALID,0,VALID,98.0827,VALID,0,VALID,19.7248,VALID,285,VALID,0.0506904,
2006-10-12, 07:14:00,VALID,921.638,VALID,0,VALID,98.2429,VALID,0,VALID,19.7017,VALID,285,VALID,0.259146,
2006-10-12, 07:15:00,VALID,921.626,VALID,0,VALID,98.4222,VALID,-0.0339617,VALID,19.699,VALID,285,VALID,0.335742,
2006-10-12, 07:16:00,VALID,921.627,VALID,0,VALID,98.7871,VALID,0,VALID,19.6923,VALID,285,VALID,0.396257,
2006-10-12, 07:17:00,VALID,921.615,VALID,0,VALID,99.1419,VALID,-0.0679233,VALID,19.7216,VALID,289,VALID,0.502038,
2006-10-12, 07:18:00,VALID,921.612,VALID,0,VALID,99.002,VALID,-0.0169808,VALID,19.7184,VALID,306,VALID,0.788194,
2006-10-12, 07:19:00,VALID,921.619,VALID,0,VALID,98.8825,VALID,-0.0169808,VALID,19.6799,VALID,307,VALID,0.804297,
2006-10-12, 07:20:00,VALID,921.604,VALID,0,VALID,98.7287,VALID,0,VALID,19.6476,VALID,306,VALID,0.873365,
2006-10-12, 07:21:00,VALID,921.595,VALID,0,VALID,98.7884,VALID,0,VALID,19.6022,VALID,306,VALID,0.994792,
2006-10-12, 07:22:00,VALID,921.582,VALID,0,VALID,98.9741,VALID,-0.0169808,VALID,19.5699,VALID,306,VALID,1.02553,
2006-10-12, 07:23:00,VALID,921.587,VALID,0,VALID,99.1241,VALID,0,VALID,19.5441,VALID,306,VALID,0.985224,
2006-10-12, 07:24:00,VALID,921.575,VALID,0,VALID,99.2258,VALID,0,VALID,19.5089,VALID,306,VALID,0.84593,
2006-10-12, 07:25:00,VALID,921.568,VALID,0,VALID,99.4547,VALID,0,VALID,19.4895,VALID,306,VALID,0.58718,
2006-10-12, 07:26:00,VALID,921.565,VALID,0,VALID,99.5857,VALID,0,VALID,19.4798,VALID,306,VALID,0.292597,
2006-10-12, 07:27:00,VALID,921.549,VALID,0,VALID,99.7574,VALID,-0.0509425,VALID,19.4801,VALID,306,VALID,0.0977471,
2006-10-12, 07:28:00,VALID,921.542,VALID,0,VALID,99.8032,VALID,-0.0169808,VALID,19.4734,VALID,306,VALID,0,
2006-10-12, 07:29:00,VALID,921.529,VALID,0,VALID,99.7154,VALID,0,VALID,19.4704,VALID,306,VALID,0.00106534,
2006-10-12, 07:30:00,VALID,921.505,VALID,0,VALID,99.7536,VALID,0,VALID,19.4706,VALID,306,VALID,0,
2006-10-12, 07:31:00,VALID,921.491,VALID,0,VALID,99.9222,VALID,0,VALID,19.4734,VALID,306,VALID,0,
2006-10-12, 07:32:00,VALID,921.471,VALID,0,VALID,99.9428,VALID,-0.0169808,VALID,19.4893,VALID,306,VALID,0,
2006-10-12, 07:33:00,VALID,921.452,VALID,0,VALID,99.6328,VALID,-0.0339617,VALID,19.4865,VALID,306,VALID,0,
2006-10-12, 07:34:00,VALID,921.435,VALID,0,VALID,99.3937,VALID,0,VALID,19.4416,VALID,306,VALID,0,
2006-10-12, 07:35:00,VALID,921.42,VALID,0,VALID,99.2907,VALID,-0.0339617,VALID,19.4128,VALID,306,VALID,0.0672238,
2006-10-12, 07:36:00,VALID,921.412,VALID,0,VALID,99.2386,VALID,-0.0169808,VALID,19.3867,VALID,306,VALID,0.0025436,
2006-10-12, 07:37:00,VALID,921.407,VALID,0,VALID,98.9741,VALID,-0.0509425,VALID,19.3346,VALID,306,VALID,0,
2006-10-12, 07:38:00,VALID,921.4,VALID,0,VALID,99.2487,VALID,-0.0339617,VALID,19.3091,VALID,306,VALID,0,
2006-10-12, 07:39:00,VALID,921.389,VALID,0,VALID,99.1381,VALID,-0.0849042,VALID,19.2768,VALID,306,VALID,0,
2006-10-12, 07:40:00,VALID,921.399,VALID,0,VALID,99.189,VALID,-0.0169808,VALID,19.2579,VALID,306,VALID,0,
2006-10-12, 07:41:00,VALID,921.398,VALID,0,VALID,99.2398,VALID,-0.0339617,VALID,19.2351,VALID,306,VALID,0,
2006-10-12, 07:42:00,VALID,921.387,VALID,0,VALID,99.4318,VALID,-0.0169808,VALID,19.2512,VALID,306,VALID,0,
2006-10-12, 07:43:00,VALID,921.382,VALID,0,VALID,99.7103,VALID,-0.0509425,VALID,19.3033,VALID,306,VALID,0.0432546,
2006-10-12, 07:44:00,VALID,921.361,VALID,0,VALID,99.9629,VALID,0,VALID,19.3614,VALID,306,VALID,0,
2006-10-12, 07:45:00,VALID,921.344,VALID,0,VALID,100,VALID,-0.0169808,VALID,19.4126,VALID,306,VALID,0,
2006-10-12, 07:46:00,VALID,921.346,VALID,0,VALID,99.9763,VALID,-0.0339617,VALID,19.4421,VALID,306,VALID,0,
2006-10-12, 07:47:00,VALID,921.331,VALID,0,VALID,99.868,VALID,-0.0509425,VALID,19.4423,VALID,306,VALID,0,
2006-10-12, 07:48:00,VALID,921.324,VALID,0,VALID,99.7485,VALID,-0.0509425,VALID,19.449,VALID,306,VALID,0,
2006-10-12, 07:49:00,VALID,921.324,VALID,0,VALID,99.5794,VALID,-0.0339617,VALID,19.4453,VALID,306,VALID,0,
2006-10-12, 07:50:00,VALID,921.318,VALID,0,VALID,99.5844,VALID,-0.0339617,VALID,19.4582,VALID,306,VALID,0,
2006-10-12, 07:51:00,VALID,921.306,VALID,0,VALID,99.7383,VALID,-0.0679233,VALID,19.4744,VALID,306,VALID,0.0111328,
2006-10-12, 07:52:00,VALID,921.311,VALID,0,VALID,99.6595,VALID,0,VALID,19.4811,VALID,313,VALID,0.282393,
2006-10-12, 07:53:00,VALID,921.298,VALID,0,VALID,99.5755,VALID,0,VALID,19.4699,VALID,337,VALID,0.453125,
2006-10-12, 07:54:00,VALID,921.27,VALID,0,VALID,99.5895,VALID,0.0169808,VALID,19.4538,VALID,64,VALID,0.669969,
2006-10-12, 07:55:00,VALID,921.254,VALID,0,VALID,99.9387,VALID,0.0169808,VALID,19.4602,VALID,60,VALID,0.715909,
2006-10-12, 07:56:00,VALID,921.239,VALID,0,VALID,99.999,VALID,0.0509425,VALID,19.4731,VALID,50,VALID,0.407885,
2006-10-12, 07:57:00,VALID,921.209,VALID,0,VALID,100,VALID,0.0509425,VALID,19.4833,VALID,43,VALID,0.241235,
2006-10-12, 07:58:00,VALID,921.205,VALID,0,VALID,99.9285,VALID,0.0509425,VALID,19.457,VALID,31,VALID,0.755859,
2006-10-12, 07:59:00,VALID,921.194,VALID,0,VALID,99.8934,VALID,0.0339617,VALID,19.4406,VALID,27,VALID,0.795351,
2006-10-12, 08:00:00,VALID,921.207,VALID,0,VALID,99.9377,VALID,0.0339617,VALID,19.4347,VALID,8,VALID,0.861919,
2006-10-12, 08:01:00,VALID,921.209,VALID,0,VALID,99.9519,VALID,0.0339617,VALID,19.3987,VALID,357,VALID,0.509629,
2006-10-12, 08:02:00,VALID,921.222,VALID,0,VALID,99.7497,VALID,0.0509425,VALID,19.347,VALID,350,VALID,0.536156,
2006-10-12, 08:03:00,VALID,921.225,VALID,0,VALID,99.5577,VALID,0.0509425,VALID,19.2828,VALID,337,VALID,0.504492,
2006-10-12, 08:04:00,VALID,921.246,VALID,0,VALID,99.5361,VALID,0,VALID,19.2344,VALID,324,VALID,0.407924,
2006-10-12, 08:05:00,VALID,921.248,VALID,0,VALID,99.6531,VALID,0.0849042,VALID,19.2185,VALID,285,VALID,0.562691,
2006-10-12, 08:06:00,VALID,921.241,VALID,0,VALID,99.969,VALID,0,VALID,19.218,VALID,247,VALID,0.284157,
2006-10-12, 08:07:00,VALID,921.23,VALID,0,VALID,100,VALID,0.0509425,VALID,19.2632,VALID,247,VALID,0,
2006-10-12, 08:08:00,VALID,921.214,VALID,0,VALID,100,VALID,0.0509425,VALID,19.289,VALID,311,VALID,0.325149,
2006-10-12, 08:09:00,VALID,921.196,VALID,0,VALID,100,VALID,0.0679233,VALID,19.2954,VALID,343,VALID,0.400073,
2006-10-12, 08:10:00,VALID,921.187,VALID,0,VALID,100,VALID,0.0509425,VALID,19.3056,VALID,8,VALID,0.641927,
2006-10-12, 08:11:00,VALID,921.166,VALID,0,VALID,100,VALID,0.0339617,VALID,19.3148,VALID,27,VALID,0.931641,
2006-10-12, 08:12:00,VALID,921.157,VALID,0,VALID,100,VALID,0.0169808,VALID,19.3056,VALID,34,VALID,0.914244,
2006-10-12, 08:13:00,VALID,921.14,VALID,0,VALID,100,VALID,0.0679233,VALID,19.2892,VALID,35,VALID,1.08518,
2006-10-12, 08:14:00,VALID,921.135,VALID,0,VALID,100,VALID,0,VALID,19.3088,VALID,36,VALID,0.811955,
2006-10-12, 08:15:00,VALID,921.121,VALID,0,VALID,100,VALID,0.0679233,VALID,19.318,VALID,36,VALID,0.561773,
2006-10-12, 08:16:00,VALID,921.103,VALID,0,VALID,100,VALID,0,VALID,19.3475,VALID,32,VALID,0.733665,
2006-10-12, 08:17:00,VALID,921.097,VALID,0,VALID,100,VALID,0.0509425,VALID,19.3604,VALID,29,VALID,0.607376,
2006-10-12, 08:18:00,VALID,921.087,VALID,0,VALID,100,VALID,0.0339617,VALID,19.383,VALID,30,VALID,0.656994,
2006-10-12, 08:19:00,VALID,921.071,VALID,0,VALID,100,VALID,0,VALID,19.3892,VALID,30,VALID,0.628815,
2006-10-12, 08:20:00,VALID,921.058,VALID,0,VALID,100,VALID,0.0509425,VALID,19.3922,VALID,29,VALID,0.696646,
2006-10-12, 08:21:00,VALID,921.048,VALID,0,VALID,100,VALID,0.0679233,VALID,19.4123,VALID,27,VALID,0.513445,
2006-10-12, 08:22:00,VALID,921.038,VALID,0,VALID,100,VALID,-0.0169808,VALID,19.4024,VALID,27,VALID,0.460007,
2006-10-12, 08:23:00,VALID,921.036,VALID,0,VALID,100,VALID,-0.101885,VALID,19.4103,VALID,27,VALID,0.224306,
2006-10-12, 08:24:00,VALID,921.034,VALID,0,VALID,100,VALID,-0.101885,VALID,19.4068,VALID,27,VALID,0.0479651,
2006-10-12, 08:25:00,VALID,921.013,VALID,0,VALID,100,VALID,-0.0679233,VALID,19.4394,VALID,27,VALID,0.0154433,
2006-10-12, 08:26:00,VALID,921.008,VALID,0,VALID,100,VALID,-0.0849042,VALID,19.4587,VALID,27,VALID,0,
2006-10-12, 08:27:00,VALID,921.002,VALID,0,VALID,100,VALID,-0.101885,VALID,19.4977,VALID,27,VALID,0,
2006-10-12, 08:28:00,VALID,920.986,VALID,0,VALID,100,VALID,-0.0849042,VALID,19.5069,VALID,27,VALID,0,
2006-10-12, 08:29:00,VALID,920.969,VALID,0,VALID,100,VALID,-0.0339617,VALID,19.5262,VALID,27,VALID,0.0848214,
2006-10-12, 08:30:00,VALID,920.96,VALID,0,VALID,100,VALID,-0.0679233,VALID,19.5463,VALID,27,VALID,0.0456081,
2006-10-12, 08:31:00,VALID,920.949,VALID,0,VALID,100,VALID,-0.0849042,VALID,19.5458,VALID,27,VALID,0,
2006-10-12, 08:32:00,VALID,920.943,VALID,0,VALID,100,VALID,-0.0849042,VALID,19.5491,VALID,27,VALID,0,
2006-10-12, 08:33:00,VALID,920.948,VALID,0,VALID,100,VALID,-0.101885,VALID,19.5754,VALID,27,VALID,0,
2006-10-12, 08:34:00,VALID,920.956,VALID,0,VALID,100,VALID,-0.0679233,VALID,19.5816,VALID,27,VALID,0,
2006-10-12, 08:35:00,VALID,920.962,VALID,0,VALID,100,VALID,-0.0849042,VALID,19.5776,VALID,27,VALID,0,
2006-10-12, 08:36:00,VALID,920.965,VALID,0,VALID,100,VALID,-0.0339617,VALID,19.5876,VALID,26,VALID,0.0697674,
2006-10-12, 08:37:00,VALID,920.978,VALID,0,VALID,100,VALID,-0.0679233,VALID,19.6005,VALID,24,VALID,0.180246,
2006-10-12, 08:38:00,VALID,920.983,VALID,0,VALID,100,VALID,0.0509425,VALID,19.6025,VALID,24,VALID,0.251715,
2006-10-12, 08:39:00,VALID,920.993,VALID,0,VALID,100,VALID,0.0509425,VALID,19.5764,VALID,24,VALID,0.203325,
2006-10-12, 08:40:00,VALID,920.992,VALID,0,VALID,100,VALID,0.0339617,VALID,19.5828,VALID,24,VALID,0.048473,
2006-10-12, 08:41:00,VALID,920.982,VALID,0,VALID,100,VALID,0,VALID,19.5598,VALID,24,VALID,0,
2006-10-12, 08:42:00,VALID,920.97,VALID,0,VALID,100,VALID,0.0509425,VALID,19.5605,VALID,24,VALID,0,
2006-10-12, 08:43:00,VALID,920.967,VALID,0,VALID,100,VALID,0.0339617,VALID,19.5603,VALID,24,VALID,0,
2006-10-12, 08:44:00,VALID,920.943,VALID,0,VALID,100,VALID,0.0339617,VALID,19.5732,VALID,24,VALID,0,
2006-10-12, 08:45:00,VALID,920.938,VALID,0,VALID,100,VALID,0,VALID,19.5891,VALID,24,VALID,0,
2006-10-12, 08:46:00,VALID,920.93,VALID,0,VALID,100,VALID,0,VALID,19.602,VALID,24,VALID,0.0227273,
2006-10-12, 08:47:00,VALID,920.927,VALID,0,VALID,100,VALID,0,VALID,19.6245,VALID,24,VALID,0.100291,
2006-10-12, 08:48:00,VALID,920.919,VALID,0,VALID,100,VALID,0.0169808,VALID,19.6476,VALID,24,VALID,0.11756,
2006-10-12, 08:49:00,VALID,920.919,VALID,0,VALID,100,VALID,0.0169808,VALID,19.6501,VALID,24,VALID,0.199574,
2006-10-12, 08:50:00,VALID,920.924,VALID,0,VALID,100,VALID,0.0509425,VALID,19.6702,VALID,24,VALID,0.299924,
2006-10-12, 08:51:00,VALID,920.91,VALID,0,VALID,100,VALID,0.0169808,VALID,19.6829,VALID,24,VALID,0.278888,
2006-10-12, 08:52:00,VALID,920.912,VALID,0,VALID,100,VALID,-0.0169808,VALID,19.6985,VALID,24,VALID,0.282924,
2006-10-12, 08:53:00,VALID,920.898,VALID,0,VALID,100,VALID,-0.0169808,VALID,19.7226,VALID,24,VALID,0.483817,
2006-10-12, 08:54:00,VALID,920.881,VALID,0,VALID,100,VALID,0,VALID,19.7154,VALID,24,VALID,0.558239,
2006-10-12, 08:55:00,VALID,920.865,VALID,0,VALID,100,VALID,-0.0169808,VALID,19.6995,VALID,24,VALID,0.20476,
2006-10-12, 08:56:00,VALID,920.852,VALID,0,VALID,100,VALID,-0.0169808,VALID,19.7156,VALID,24,VALID,0.0825893,
2006-10-12, 08:57:00,VALID,920.853,VALID,0,VALID,100,VALID,-0.0169808,VALID,19.7159,VALID,24,VALID,0.300959,
2006-10-12, 08:58:00,VALID,920.837,VALID,0,VALID,100,VALID,-0.0169808,VALID,19.7094,VALID,24,VALID,0.0230655,
2006-10-12, 08:59:00,VALID,920.818,VALID,0,VALID,100,VALID,0,VALID,19.7189,VALID,24,VALID,0.000372024,
2006-10-12, 09:00:00,VALID,920.809,VALID,0,VALID,100,VALID,0,VALID,19.7246,VALID,24,VALID,0,
2006-10-12, 09:01:00,VALID,920.812,VALID,0,VALID,100,VALID,-0.0169808,VALID,19.7288,VALID,24,VALID,0.00114329,
2006-10-12, 09:02:00,VALID,920.805,VALID,0,VALID,99.9939,VALID,0,VALID,19.7288,VALID,24,VALID,0.0595238,
2006-10-12, 09:03:00,VALID,920.789,VALID,0,VALID,99.9634,VALID,0,VALID,19.7283,VALID,24,VALID,0,
2006-10-12, 09:04:00,VALID,920.782,VALID,0,VALID,99.9214,VALID,-0.0339617,VALID,19.7382,VALID,24,VALID,0,
2006-10-12, 09:05:00,VALID,920.765,VALID,0,VALID,99.8884,VALID,0,VALID,19.7382,VALID,24,VALID,0.0280449,
2006-10-12, 09:06:00,VALID,920.768,VALID,0,VALID,99.6874,VALID,0,VALID,19.7251,VALID,24,VALID,0.00195313,
2006-10-12, 09:07:00,VALID,920.754,VALID,0,VALID,99.4942,VALID,0,VALID,19.7092,VALID,24,VALID,0,
2006-10-12, 09:08:00,VALID,920.75,VALID,0,VALID,99.4675,VALID,0,VALID,19.6834,VALID,24,VALID,0,
2006-10-12, 09:09:00,VALID,920.762,VALID,0,VALID,99.4954,VALID,0,VALID,19.6829,VALID,24,VALID,0,
2006-10-12, 09:10:00,VALID,920.765,VALID,0,VALID,99.5857,VALID,-0.0169808,VALID,19.706,VALID,24,VALID,0.141352,
2006-10-12, 09:11:00,VALID,920.767,VALID,0,VALID,99.5921,VALID,0,VALID,19.7057,VALID,24,VALID,0.245427,
2006-10-12, 09:12:00,VALID,920.769,VALID,0,VALID,99.6251,VALID,0.0169808,VALID,19.703,VALID,24,VALID,0.0267361,
2006-10-12, 09:13:00,VALID,920.765,VALID,0,VALID,99.6976,VALID,0,VALID,19.6665,VALID,24,VALID,0.0396635,
2006-10-12, 09:14:00,VALID,920.757,VALID,0,VALID,99.7892,VALID,0,VALID,19.6568,VALID,24,VALID,0.056593,
2006-10-12, 09:15:00,VALID,920.747,VALID,0,VALID,99.9112,VALID,0,VALID,19.6474,VALID,24,VALID,0,
2006-10-12, 09:16:00,VALID,920.728,VALID,0,VALID,99.9931,VALID,0.0169808,VALID,19.6543,VALID,24,VALID,0,
2006-10-12, 09:17:00,VALID,920.73,VALID,0,VALID,99.9855,VALID,0.0339617,VALID,19.6571,VALID,24,VALID,0,
2006-10-12, 09:18:00,VALID,920.71,VALID,0,VALID,99.7459,VALID,0,VALID,19.638,VALID,24,VALID,0,
2006-10-12, 09:19:00,VALID,920.701,VALID,0,VALID,99.5717,VALID,0,VALID,19.5955,VALID,24,VALID,0,
2006-10-12, 09:20:00,VALID,920.694,VALID,0,VALID,99.545,VALID,0,VALID,19.5861,VALID,24,VALID,0,
2006-10-12, 09:21:00,VALID,920.685,VALID,0,VALID,99.5031,VALID,0.0169808,VALID,19.5895,VALID,24,VALID,0,
2006-10-12, 09:22:00,VALID,920.674,VALID,0,VALID,99.5259,VALID,-0.0339617,VALID,19.5737,VALID,24,VALID,0.0388765,
2006-10-12, 09:23:00,VALID,920.664,VALID,0,VALID,99.4039,VALID,0,VALID,19.5573,VALID,24,VALID,0.375166,
2006-10-12, 09:24:00,VALID,920.654,VALID,0,VALID,99.5616,VALID,0,VALID,19.5384,VALID,31,VALID,0.678735,
2006-10-12, 09:25:00,VALID,920.631,VALID,0,VALID,99.5781,VALID,0,VALID,19.5089,VALID,49,VALID,0.695884,
2006-10-12, 09:26:00,VALID,920.624,VALID,0,VALID,99.6251,VALID,0,VALID,19.49,VALID,48,VALID,0.834794,
2006-10-12, 09:27:00,VALID,920.612,VALID,0,VALID,99.8706,VALID,0.0339617,VALID,19.4734,VALID,45,VALID,0.848437,
2006-10-12, 09:28:00,VALID,920.603,VALID,0,VALID,99.9926,VALID,0,VALID,19.4505,VALID,41,VALID,1.06854,
2006-10-12, 09:29:00,VALID,920.568,VALID,0,VALID,100,VALID,0,VALID,19.4314,VALID,36,VALID,0.832639,
2006-10-12, 09:30:00,VALID,920.569,VALID,0,VALID,100,VALID,0.0169808,VALID,19.4153,VALID,45,VALID,0.911701,
2006-10-12, 09:31:00,VALID,920.554,VALID,0,VALID,100,VALID,0,VALID,19.4059,VALID,38,VALID,1.25446,
2006-10-12, 09:32:00,VALID,920.53,VALID,0,VALID,100,VALID,0,VALID,19.39,VALID,31,VALID,1.06559,
2006-10-12, 09:33:00,VALID,920.54,VALID,0,VALID,100,VALID,0.0169808,VALID,19.3666,VALID,30,VALID,1.20605,
2006-10-12, 09:34:00,VALID,920.531,VALID,0,VALID,100,VALID,0,VALID,19.3604,VALID,32,VALID,0.876215,
2006-10-12, 09:35:00,VALID,920.534,VALID,0,VALID,100,VALID,0,VALID,19.3609,VALID,27,VALID,0.886533,
2006-10-12, 09:36:00,VALID,920.539,VALID,0,VALID,100,VALID,-0.0169808,VALID,19.3475,VALID,20,VALID,0.955171,
2006-10-12, 09:37:00,VALID,920.547,VALID,0,VALID,100,VALID,0,VALID,19.3349,VALID,29,VALID,0.630859,
2006-10-12, 09:38:00,VALID,920.533,VALID,0,VALID,100,VALID,0,VALID,19.3381,VALID,21,VALID,1.04948,
2006-10-12, 09:39:00,VALID,920.535,VALID,0,VALID,100,VALID,0,VALID,19.3245,VALID,11,VALID,0.507813,
2006-10-12, 09:40:00,VALID,920.534,VALID,0,VALID,100,VALID,0,VALID,19.3351,VALID,7,VALID,1.10938,
2006-10-12, 09:41:00,VALID,920.518,VALID,0,VALID,100,VALID,-0.0169808,VALID,19.315,VALID,347,VALID,0.773793,
2006-10-12, 09:42:00,VALID,920.515,VALID,0,VALID,100,VALID,0,VALID,19.3088,VALID,347,VALID,0.453472,
2006-10-12, 09:43:00,VALID,920.503,VALID,0,VALID,100,VALID,-0.0169808,VALID,19.2897,VALID,1,VALID,0.516369,
2006-10-12, 09:44:00,VALID,920.476,VALID,0,VALID,100,VALID,0,VALID,19.2835,VALID,2,VALID,0.530523,
2006-10-12, 09:45:00,VALID,920.459,VALID,0,VALID,100,VALID,0,VALID,19.2701,VALID,348,VALID,0.537246,
2006-10-12, 09:46:00,VALID,920.446,VALID,0,VALID,100,VALID,0,VALID,19.2475,VALID,357,VALID,0.428943,
2006-10-12, 09:47:00,VALID,920.439,VALID,0,VALID,100,VALID,0.0169808,VALID,19.2123,VALID,12,VALID,0.901215,
2006-10-12, 09:48:00,VALID,920.431,VALID,0,VALID,100,VALID,0.0169808,VALID,19.1961,VALID,20,VALID,0.739901,
2006-10-12, 09:49:00,VALID,920.424,VALID,0,VALID,100,VALID,0,VALID,19.177,VALID,16,VALID,0.841933,
2006-10-12, 09:50:00,VALID,920.414,VALID,0,VALID,100,VALID,0,VALID,19.1678,VALID,10,VALID,1.05278,
2006-10-12, 09:51:00,VALID,920.401,VALID,0,VALID,100,VALID,-0.0169808,VALID,19.1447,VALID,2,VALID,0.791726,
2006-10-12, 09:52:00,VALID,920.387,VALID,0,VALID,100,VALID,-0.0169808,VALID,19.1254,VALID,355,VALID,0.71224,
2006-10-12, 09:53:00,VALID,920.375,VALID,0,VALID,100,VALID,-0.0169808,VALID,19.1095,VALID,341,VALID,0.975419,
2006-10-12, 09:54:00,VALID,920.363,VALID,0,VALID,100,VALID,-0.0339617,VALID,19.1033,VALID,340,VALID,0.83718,
2006-10-12, 09:55:00,VALID,920.343,VALID,0,VALID,100,VALID,-0.0509425,VALID,19.0936,VALID,338,VALID,0.898256,
2006-10-12, 09:56:00,VALID,920.339,VALID,0,VALID,100,VALID,-0.0679233,VALID,19.0906,VALID,343,VALID,0.690358,
2006-10-12, 09:57:00,VALID,920.348,VALID,0,VALID,100,VALID,-0.0509425,VALID,19.0675,VALID,334,VALID,0.715701,
2006-10-12, 09:58:00,VALID,920.354,VALID,0,VALID,100,VALID,-0.0509425,VALID,19.0613,VALID,318,VALID,0.689174,
2006-10-12, 09:59:00,VALID,920.351,VALID,0,VALID,100,VALID,-0.0339617,VALID,19.0581,VALID,330,VALID,0.664063,
2006-10-12, 10:00:00,VALID,920.35,VALID,0,VALID,100,VALID,-0.0339617,VALID,19.0581,VALID,344,VALID,0.417873,
2006-10-12, 10:01:00,VALID,920.361,VALID,0,VALID,100,VALID,-0.0339617,VALID,19.062,VALID,7,VALID,0.638148,
2006-10-12, 10:02:00,VALID,920.35,VALID,0,VALID,100,VALID,-0.0169808,VALID,19.0648,VALID,10,VALID,0.775568,
2006-10-12, 10:03:00,VALID,920.347,VALID,0,VALID,100,VALID,-0.0509425,VALID,19.0804,VALID,4,VALID,1.12305,
2006-10-12, 10:04:00,VALID,920.352,VALID,0,VALID,100,VALID,-0.0509425,VALID,19.1,VALID,354,VALID,0.937686,
2006-10-12, 10:05:00,VALID,920.336,VALID,0,VALID,100,VALID,0,VALID,19.1097,VALID,349,VALID,0.678299,
2006-10-12, 10:06:00,VALID,920.344,VALID,0,VALID,100,VALID,-0.0169808,VALID,19.0998,VALID,1,VALID,0.63899,
2006-10-12, 10:07:00,VALID,920.338,VALID,0,VALID,100,VALID,-0.0169808,VALID,19.1159,VALID,356,VALID,0.546875,
2006-10-12, 10:08:00,VALID,920.354,VALID,0,VALID,100,VALID,-0.101885,VALID,19.1338,VALID,355,VALID,0.217969,
2006-10-12, 10:09:00,VALID,920.353,VALID,0,VALID,100,VALID,-0.101885,VALID,19.1176,VALID,355,VALID,0,
2006-10-12, 10:10:00,VALID,920.355,VALID,0,VALID,100,VALID,-0.135847,VALID,19.1208,VALID,355,VALID,0.000952744,
2006-10-12, 10:11:00,VALID,920.366,VALID,0,VALID,100,VALID,-0.118866,VALID,19.1305,VALID,355,VALID,0,
2006-10-12, 10:12:00,VALID,920.377,VALID,0,VALID,100,VALID,-0.118866,VALID,19.137,VALID,355,VALID,0,
2006-10-12, 10:13:00,VALID,920.382,VALID,0,VALID,100,VALID,-0.118866,VALID,19.1469,VALID,355,VALID,0,
2006-10-12, 10:14:00,VALID,920.397,VALID,0,VALID,100,VALID,-0.135847,VALID,19.1469,VALID,355,VALID,0,
2006-10-12, 10:15:00,VALID,920.414,VALID,0,VALID,100,VALID,-0.135847,VALID,19.1208,VALID,355,VALID,0,
2006-10-12, 10:16:00,VALID,920.412,VALID,0,VALID,100,VALID,-0.135847,VALID,19.1278,VALID,355,VALID,0.0334821,
2006-10-12, 10:17:00,VALID,920.415,VALID,0,VALID,100,VALID,-0.135847,VALID,19.1278,VALID,355,VALID,0,
2006-10-12, 10:18:00,VALID,920.419,VALID,0,VALID,100,VALID,-0.118866,VALID,19.1179,VALID,355,VALID,0,
2006-10-12, 10:19:00,VALID,920.412,VALID,0,VALID,100,VALID,-0.101885,VALID,19.1179,VALID,355,VALID,0,
2006-10-12, 10:20:00,VALID,920.411,VALID,0,VALID,100,VALID,-0.118866,VALID,19.0985,VALID,355,VALID,0,
2006-10-12, 10:21:00,VALID,920.403,VALID,0,VALID,100,VALID,-0.135847,VALID,19.0821,VALID,355,VALID,0.0993304,
2006-10-12, 10:22:00,VALID,920.395,VALID,0,VALID,100,VALID,-0.0849042,VALID,19.0854,VALID,355,VALID,0.31141,
2006-10-12, 10:23:00,VALID,920.392,VALID,0,VALID,100,VALID,-0.0169808,VALID,19.0809,VALID,355,VALID,0.202762,
2006-10-12, 10:24:00,VALID,920.38,VALID,0,VALID,100,VALID,0,VALID,19.0807,VALID,56,VALID,0.365885,
2006-10-12, 10:25:00,VALID,920.366,VALID,0,VALID,100,VALID,0,VALID,19.0775,VALID,65,VALID,0.109375,
2006-10-12, 10:26:00,VALID,920.358,VALID,0,VALID,100,VALID,-0.0169808,VALID,19.1005,VALID,65,VALID,0.453488,
2006-10-12, 10:27:00,VALID,920.338,VALID,0,VALID,100,VALID,-0.0169808,VALID,19.0906,VALID,65,VALID,0.37138,
2006-10-12, 10:28:00,VALID,920.325,VALID,0,VALID,100,VALID,0,VALID,19.0775,VALID,65,VALID,0.369141,
2006-10-12, 10:29:00,VALID,920.321,VALID,0,VALID,100,VALID,-0.0169808,VALID,19.0678,VALID,65,VALID,0.445668,
2006-10-12, 10:30:00,VALID,920.315,VALID,0,VALID,100,VALID,0,VALID,19.0613,VALID,59,VALID,0.147485,
2006-10-12, 10:31:00,VALID,920.297,VALID,0,VALID,100,VALID,-0.0169808,VALID,19.0717,VALID,43,VALID,0.565848,
2006-10-12, 10:32:00,VALID,920.284,VALID,0,VALID,100,VALID,-0.0339617,VALID,19.0551,VALID,41,VALID,0.348047,
2006-10-12, 10:33:00,VALID,920.27,VALID,0,VALID,100,VALID,-0.0509425,VALID,19.039,VALID,40,VALID,0.517987,
2006-10-12, 10:34:00,VALID,920.244,VALID,0,VALID,100,VALID,-0.0169808,VALID,19.0325,VALID,34,VALID,0.432736,
2006-10-12, 10:35:00,VALID,920.242,VALID,0,VALID,100,VALID,-0.0339617,VALID,19.0261,VALID,26,VALID,0.553013,
2006-10-12, 10:36:00,VALID,920.221,VALID,0,VALID,100,VALID,-0.0339617,VALID,19.0102,VALID,26,VALID,0.460227,
2006-10-12, 10:37:00,VALID,920.199,VALID,0,VALID,100,VALID,0,VALID,19.004,VALID,27,VALID,0.578697,
2006-10-12, 10:38:00,VALID,920.197,VALID,0,VALID,100,VALID,-0.0849042,VALID,18.9975,VALID,28,VALID,0.557227,
2006-10-12, 10:39:00,VALID,920.174,VALID,0,VALID,100,VALID,-0.0679233,VALID,19.0012,VALID,30,VALID,0.429492,
2006-10-12, 10:40:00,VALID,920.173,VALID,0,VALID,100,VALID,-0.0849042,VALID,18.9945,VALID,46,VALID,0.337003,
2006-10-12, 10:41:00,VALID,920.166,VALID,0,VALID,100,VALID,-0.0169808,VALID,18.9841,VALID,56,VALID,0.293255,